Time,TemperatureF,DewpointF,PressureIn,WindDirection,WindDirectionDegrees,WindSpeedMPH,WindSpeedGustMPH,Humidity,HourlyPrecipIn,Conditions,Clouds,dailyrainin,SoftwareType,DateUTC
2013-09-25 00:01:00,47.7,42.5,29.92,NW,321,0.0,0.0,82,0.00,,,0.00,Wunderground v.1.15,2013-09-25 04:01:00,
2013-09-25 00:06:00,47.5,42.6,29.92,NW,321,0.0,0.0,83,0.00,,,0.00,Wunderground v.1.15,2013-09-25 04:06:00,
2013-09-25 00:11:00,47.4,42.5,29.92,NW,321,0.0,0.0,83,0.00,,,0.00,Wunderground v.1.15,2013-09-25 04:11:00,
2013-09-25 00:16:00,47.2,42.6,29.93,NW,321,0.0,0.0,84,0.00,,,0.00,Wunderground v.1.15,2013-09-25 04:16:00,
2013-09-25 00:22:00,47.1,42.5,29.93,NW,321,0.0,0.0,84,0.00,,,0.00,Wunderground v.1.15,2013-09-25 04:22:00,
2013-09-25 00:27:00,46.9,42.6,29.92,NW,321,0.0,0.0,85,0.00,,,0.00,Wunderground v.1.15,2013-09-25 04:27:00,
2013-09-25 00:32:00,46.7,42.4,29.92,NW,321,0.0,0.0,85,0.00,,,0.00,Wunderground v.1.15,2013-09-25 04:32:00,
2013-09-25 00:37:00,46.6,42.3,29.92,NW,321,0.0,0.0,85,0.00,,,0.00,Wunderground v.1.15,2013-09-25 04:37:00,
2013-09-25 00:42:00,46.4,42.1,29.92,NW,321,0.0,0.0,85,0.00,,,0.00,Wunderground v.1.15,2013-09-25 04:42:00,
2013-09-25 00:47:00,46.4,42.1,29.92,NW,321,0.0,0.0,85,0.00,,,0.00,Wunderground v.1.15,2013-09-25 04:47:00,
2013-09-25 00:52:00,46.3,42.3,29.92,NW,321,0.0,0.0,86,0.00,,,0.00,Wunderground v.1.15,2013-09-25 04:52:00,
2013-09-25 00:57:00,46.2,42.2,29.92,NW,321,0.0,0.0,86,0.00,,,0.00,Wunderground v.1.15,2013-09-25 04:57:00,
2013-09-25 01:02:00,46.1,42.1,29.92,NW,321,0.0,0.0,86,0.00,,,0.00,Wunderground v.1.15,2013-09-25 05:02:00,
2013-09-25 01:07:00,45.9,41.9,29.92,NW,321,0.0,0.0,86,0.00,,,0.00,Wunderground v.1.15,2013-09-25 05:07:00,
2013-09-25 01:12:00,45.8,41.9,29.92,NW,321,0.0,0.0,86,0.00,,,0.00,Wunderground v.1.15,2013-09-25 05:12:00,
2013-09-25 01:17:00,45.6,42.0,29.92,NW,321,0.0,0.0,87,0.00,,,0.00,Wunderground v.1.15,2013-09-25 05:17:00,
2013-09-25 01:22:00,45.5,41.9,29.92,NW,321,0.0,0.0,87,0.00,,,0.00,Wunderground v.1.15,2013-09-25 05:22:00,
2013-09-25 01:27:00,45.4,41.8,29.92,NW,321,0.0,0.0,87,0.00,,,0.00,Wunderground v.1.15,2013-09-25 05:27:00,
2013-09-25 01:32:00,45.2,41.6,29.92,NW,321,0.0,0.0,87,0.00,,,0.00,Wunderground v.1.15,2013-09-25 05:32:00,
2013-09-25 01:37:00,45.1,41.5,29.92,NW,321,0.0,0.0,87,0.00,,,0.00,Wunderground v.1.15,2013-09-25 05:37:00,
2013-09-25 01:42:00,45.1,41.8,29.92,NW,321,0.0,0.0,88,0.00,,,0.00,Wunderground v.1.15,2013-09-25 05:42:00,
2013-09-25 01:47:00,45.0,41.7,29.92,NW,321,0.0,0.0,88,0.00,,,0.00,Wunderground v.1.15,2013-09-25 05:47:00,
2013-09-25 01:52:00,45.0,41.7,29.92,NW,321,0.0,0.0,88,0.00,,,0.00,Wunderground v.1.15,2013-09-25 05:52:00,
2013-09-25 01:57:00,44.9,41.6,29.92,NW,321,0.0,0.0,88,0.00,,,0.00,Wunderground v.1.15,2013-09-25 05:57:00,
2013-09-25 02:02:00,44.7,41.4,29.92,NW,321,0.0,0.0,88,0.00,,,0.00,Wunderground v.1.15,2013-09-25 06:02:00,
2013-09-25 02:07:00,44.6,41.3,29.92,NW,321,0.0,0.0,88,0.00,,,0.00,Wunderground v.1.15,2013-09-25 06:07:00,
2013-09-25 02:12:00,44.4,41.4,29.92,NW,321,0.0,0.0,89,0.00,,,0.00,Wunderground v.1.15,2013-09-25 06:12:00,
2013-09-25 02:17:00,44.4,41.4,29.92,NW,321,0.0,0.0,89,0.00,,,0.00,Wunderground v.1.15,2013-09-25 06:17:00,
2013-09-25 02:22:00,44.2,41.2,29.91,NW,321,0.0,0.0,89,0.00,,,0.00,Wunderground v.1.15,2013-09-25 06:22:00,
2013-09-25 02:27:00,44.1,41.1,29.92,NW,321,0.0,0.0,89,0.00,,,0.00,Wunderground v.1.15,2013-09-25 06:27:00,
2013-09-25 02:32:00,44.0,41.0,29.91,NW,321,0.0,0.0,89,0.00,,,0.00,Wunderground v.1.15,2013-09-25 06:32:00,
2013-09-25 02:37:00,44.0,41.0,29.91,NW,321,0.0,0.0,89,0.00,,,0.00,Wunderground v.1.15,2013-09-25 06:37:00,
2013-09-25 02:42:00,43.9,40.9,29.91,NW,321,0.0,0.0,89,0.00,,,0.00,Wunderground v.1.15,2013-09-25 06:42:00,
2013-09-25 02:47:00,43.8,40.8,29.91,NW,321,0.0,0.0,89,0.00,,,0.00,Wunderground v.1.15,2013-09-25 06:47:00,
2013-09-25 02:52:00,43.8,40.8,29.91,NW,321,0.0,0.0,89,0.00,,,0.00,Wunderground v.1.15,2013-09-25 06:52:00,
2013-09-25 02:57:00,43.7,41.0,29.91,NW,321,0.0,0.0,90,0.00,,,0.00,Wunderground v.1.15,2013-09-25 06:57:00,
2013-09-25 03:02:00,43.6,40.9,29.91,NW,321,0.0,0.0,90,0.00,,,0.00,Wunderground v.1.15,2013-09-25 07:02:00,
2013-09-25 03:07:00,43.6,40.9,29.91,NW,321,0.0,0.0,90,0.00,,,0.00,Wunderground v.1.15,2013-09-25 07:07:00,
2013-09-25 03:12:00,43.6,40.9,29.91,NW,321,0.0,0.0,90,0.00,,,0.00,Wunderground v.1.15,2013-09-25 07:12:00,
2013-09-25 03:17:00,43.6,40.9,29.91,NW,321,0.0,0.0,90,0.00,,,0.00,Wunderground v.1.15,2013-09-25 07:17:00,
2013-09-25 03:22:00,43.6,40.9,29.91,NW,321,0.0,0.0,90,0.00,,,0.00,Wunderground v.1.15,2013-09-25 07:22:00,
2013-09-25 03:27:00,43.6,40.9,29.91,NW,321,0.0,0.0,90,0.00,,,0.00,Wunderground v.1.15,2013-09-25 07:27:00,
2013-09-25 03:32:00,43.4,40.7,29.91,NW,321,0.0,0.0,90,0.00,,,0.00,Wunderground v.1.15,2013-09-25 07:32:00,
2013-09-25 03:37:00,43.4,40.7,29.91,NW,321,0.0,0.0,90,0.00,,,0.00,Wunderground v.1.15,2013-09-25 07:37:00,
2013-09-25 03:42:00,43.3,40.6,29.91,NW,321,0.0,0.0,90,0.00,,,0.00,Wunderground v.1.15,2013-09-25 07:42:00,
2013-09-25 03:47:00,43.3,40.6,29.91,NW,321,0.0,0.0,90,0.00,,,0.00,Wunderground v.1.15,2013-09-25 07:47:00,
2013-09-25 03:52:00,43.2,40.8,29.91,NW,321,0.0,0.0,91,0.00,,,0.00,Wunderground v.1.15,2013-09-25 07:52:00,
2013-09-25 03:57:00,43.3,40.8,29.91,NW,321,0.0,0.0,91,0.00,,,0.00,Wunderground v.1.15,2013-09-25 07:57:00,
2013-09-25 04:02:00,43.2,40.5,29.91,NW,321,0.0,0.0,90,0.00,,,0.00,Wunderground v.1.15,2013-09-25 08:02:00,
2013-09-25 04:07:00,43.1,40.4,29.91,NW,321,0.0,0.0,90,0.00,,,0.00,Wunderground v.1.15,2013-09-25 08:07:00,
2013-09-25 04:12:00,42.9,40.2,29.91,NW,321,0.0,0.0,90,0.00,,,0.00,Wunderground v.1.15,2013-09-25 08:12:00,
2013-09-25 04:17:00,42.8,40.4,29.91,NW,321,0.0,1.0,91,0.00,,,0.00,Wunderground v.1.15,2013-09-25 08:17:00,
2013-09-25 04:22:00,42.8,40.4,29.91,NW,321,0.0,0.0,91,0.00,,,0.00,Wunderground v.1.15,2013-09-25 08:22:00,
2013-09-25 04:27:00,42.9,40.5,29.91,NW,321,0.0,0.0,91,0.00,,,0.00,Wunderground v.1.15,2013-09-25 08:27:00,
2013-09-25 04:32:00,42.9,40.5,29.91,NW,321,0.0,0.0,91,0.00,,,0.00,Wunderground v.1.15,2013-09-25 08:32:00,
2013-09-25 04:37:00,42.8,40.4,29.91,NW,321,0.0,2.0,91,0.00,,,0.00,Wunderground v.1.15,2013-09-25 08:37:00,
2013-09-25 04:42:00,42.7,40.3,29.91,NW,321,0.0,0.0,91,0.00,,,0.00,Wunderground v.1.15,2013-09-25 08:42:00,
2013-09-25 04:47:00,42.5,40.1,29.91,NW,321,0.0,0.0,91,0.00,,,0.00,Wunderground v.1.15,2013-09-25 08:47:00,
2013-09-25 04:52:00,42.4,40.0,29.91,NW,321,0.0,0.0,91,0.00,,,0.00,Wunderground v.1.15,2013-09-25 08:52:00,
2013-09-25 04:57:00,42.5,40.1,29.91,NW,321,0.0,0.0,91,0.00,,,0.00,Wunderground v.1.15,2013-09-25 08:57:00,
2013-09-25 05:02:00,42.4,40.0,29.91,NW,321,0.0,0.0,91,0.00,,,0.00,Wunderground v.1.15,2013-09-25 09:02:00,
2013-09-25 05:07:00,42.4,40.0,29.91,NW,321,0.0,0.0,91,0.00,,,0.00,Wunderground v.1.15,2013-09-25 09:07:00,
2013-09-25 05:12:00,42.3,39.9,29.91,NW,321,0.0,0.0,91,0.00,,,0.00,Wunderground v.1.15,2013-09-25 09:12:00,
2013-09-25 05:17:00,42.4,40.0,29.91,NW,321,0.0,0.0,91,0.00,,,0.00,Wunderground v.1.15,2013-09-25 09:17:00,
2013-09-25 05:22:00,42.3,39.9,29.91,NW,321,0.0,0.0,91,0.00,,,0.00,Wunderground v.1.15,2013-09-25 09:22:00,
2013-09-25 05:27:00,42.3,39.9,29.91,NW,321,0.0,0.0,91,0.00,,,0.00,Wunderground v.1.15,2013-09-25 09:27:00,
2013-09-25 05:32:00,42.3,39.9,29.91,NW,321,0.0,0.0,91,0.00,,,0.00,Wunderground v.1.15,2013-09-25 09:32:00,
2013-09-25 05:37:00,42.2,39.8,29.91,NW,321,0.0,0.0,91,0.00,,,0.00,Wunderground v.1.15,2013-09-25 09:37:00,
2013-09-25 05:42:00,42.1,39.7,29.91,NW,321,0.0,0.0,91,0.00,,,0.00,Wunderground v.1.15,2013-09-25 09:42:00,
2013-09-25 05:47:00,42.0,39.6,29.91,NW,321,0.0,0.0,91,0.00,,,0.00,Wunderground v.1.15,2013-09-25 09:47:00,
2013-09-25 05:52:00,41.9,39.5,29.91,NW,321,0.0,0.0,91,0.00,,,0.00,Wunderground v.1.15,2013-09-25 09:52:00,
2013-09-25 05:57:00,41.9,39.5,29.91,NW,321,0.0,0.0,91,0.00,,,0.00,Wunderground v.1.15,2013-09-25 09:57:00,
2013-09-25 06:02:00,42.0,39.6,29.91,NW,321,0.0,0.0,91,0.00,,,0.00,Wunderground v.1.15,2013-09-25 10:02:00,
2013-09-25 06:07:00,42.0,39.8,29.91,NW,321,0.0,0.0,92,0.00,,,0.00,Wunderground v.1.15,2013-09-25 10:07:00,
2013-09-25 06:12:00,42.0,39.8,29.91,NW,321,0.0,0.0,92,0.00,,,0.00,Wunderground v.1.15,2013-09-25 10:12:00,
2013-09-25 06:17:00,41.9,39.7,29.91,NW,321,0.0,0.0,92,0.00,,,0.00,Wunderground v.1.15,2013-09-25 10:17:00,
2013-09-25 06:22:00,41.9,39.7,29.91,NW,321,0.0,0.0,92,0.00,,,0.00,Wunderground v.1.15,2013-09-25 10:22:00,
2013-09-25 06:27:00,41.9,39.7,29.91,NW,321,0.0,0.0,92,0.00,,,0.00,Wunderground v.1.15,2013-09-25 10:27:00,
2013-09-25 06:32:00,41.7,39.5,29.91,NW,321,0.0,0.0,92,0.00,,,0.00,Wunderground v.1.15,2013-09-25 10:32:00,
2013-09-25 06:37:00,41.7,39.5,29.92,NW,321,0.0,2.0,92,0.00,,,0.00,Wunderground v.1.15,2013-09-25 10:37:00,
2013-09-25 06:42:00,41.8,39.6,29.91,NW,321,0.0,2.0,92,0.00,,,0.00,Wunderground v.1.15,2013-09-25 10:42:00,
2013-09-25 06:47:00,41.9,39.7,29.91,NW,321,0.0,2.0,92,0.00,,,0.00,Wunderground v.1.15,2013-09-25 10:47:00,
2013-09-25 06:52:00,42.0,39.8,29.91,NW,321,0.0,0.0,92,0.00,,,0.00,Wunderground v.1.15,2013-09-25 10:52:00,
2013-09-25 06:57:00,42.3,40.1,29.91,NW,321,0.0,1.0,92,0.00,,,0.00,Wunderground v.1.15,2013-09-25 10:57:00,
2013-09-25 07:02:00,42.8,40.6,29.91,NW,321,0.0,0.0,92,0.00,,,0.00,Wunderground v.1.15,2013-09-25 11:02:00,
2013-09-25 07:07:00,43.2,41.0,29.91,NW,321,0.0,0.0,92,0.00,,,0.00,Wunderground v.1.15,2013-09-25 11:07:00,
2013-09-25 07:12:00,43.6,41.4,29.91,NW,321,0.0,0.0,92,0.00,,,0.00,Wunderground v.1.15,2013-09-25 11:12:00,
2013-09-25 07:17:00,43.9,41.7,29.91,NW,321,0.0,0.0,92,0.00,,,0.00,Wunderground v.1.15,2013-09-25 11:17:00,
2013-09-25 07:22:00,44.1,41.9,29.91,NW,321,0.0,0.0,92,0.00,,,0.00,Wunderground v.1.15,2013-09-25 11:22:00,
2013-09-25 07:27:00,44.3,42.1,29.91,NW,321,0.0,0.0,92,0.00,,,0.00,Wunderground v.1.15,2013-09-25 11:27:00,
2013-09-25 07:32:00,44.5,42.3,29.91,NW,321,0.0,0.0,92,0.00,,,0.00,Wunderground v.1.15,2013-09-25 11:32:00,
2013-09-25 07:37:00,44.7,42.5,29.91,NW,321,0.0,0.0,92,0.00,,,0.00,Wunderground v.1.15,2013-09-25 11:37:00,
2013-09-25 07:42:00,45.0,42.8,29.91,NW,321,0.0,0.0,92,0.00,,,0.00,Wunderground v.1.15,2013-09-25 11:42:00,
2013-09-25 07:47:00,45.7,43.5,29.91,West,266,0.0,0.0,92,0.00,,,0.00,Wunderground v.1.15,2013-09-25 11:47:00,
2013-09-25 07:52:00,46.6,44.4,29.91,NNE,30,0.0,0.0,92,0.00,,,0.00,Wunderground v.1.15,2013-09-25 11:52:00,
2013-09-25 07:57:00,47.6,45.7,29.91,NNE,30,0.0,0.0,93,0.00,,,0.00,Wunderground v.1.15,2013-09-25 11:57:00,
2013-09-25 08:02:00,48.6,46.4,29.92,NNE,17,0.0,1.0,92,0.00,,,0.00,Wunderground v.1.15,2013-09-25 12:02:00,
2013-09-25 08:07:00,49.6,47.4,29.91,NNE,14,0.0,2.0,92,0.00,,,0.00,Wunderground v.1.15,2013-09-25 12:07:00,
2013-09-25 08:12:00,50.9,48.4,29.92,NW,306,1.0,5.0,91,0.00,,,0.00,Wunderground v.1.15,2013-09-25 12:12:00,
2013-09-25 08:17:00,52.1,48.7,29.92,NW,306,1.0,5.0,88,0.00,,,0.00,Wunderground v.1.15,2013-09-25 12:17:00,
2013-09-25 08:22:00,53.1,48.7,29.92,WNW,284,1.0,4.0,85,0.00,,,0.00,Wunderground v.1.15,2013-09-25 12:22:00,
2013-09-25 08:27:00,54.0,48.6,29.92,WNW,298,0.0,4.0,82,0.00,,,0.00,Wunderground v.1.15,2013-09-25 12:27:00,
2013-09-25 08:32:00,54.9,48.2,29.92,WNW,294,4.0,6.0,78,0.00,,,0.00,Wunderground v.1.15,2013-09-25 12:32:00,
2013-09-25 08:37:00,55.9,48.1,29.92,NNW,332,3.0,8.0,75,0.00,,,0.00,Wunderground v.1.15,2013-09-25 12:37:00,
2013-09-25 08:42:00,56.7,47.4,29.92,North,355,3.0,10.0,71,0.00,,,0.00,Wunderground v.1.15,2013-09-25 12:42:00,
2013-09-25 08:47:00,56.9,47.2,29.92,NW,306,3.0,10.0,70,0.00,,,0.00,Wunderground v.1.15,2013-09-25 12:47:00,
2013-09-25 08:52:00,57.3,47.2,29.92,NW,325,8.0,11.0,69,0.00,,,0.00,Wunderground v.1.15,2013-09-25 12:52:00,
2013-09-25 08:57:00,57.6,47.5,29.93,NNE,19,5.0,11.0,69,0.00,,,0.00,Wunderground v.1.15,2013-09-25 12:57:00,
2013-09-25 09:02:00,57.4,47.3,29.93,NNW,343,4.0,10.0,69,0.00,,,0.00,Wunderground v.1.15,2013-09-25 13:02:00,
2013-09-25 09:07:00,58.0,47.5,29.93,North,9,7.0,12.0,68,0.00,,,0.00,Wunderground v.1.15,2013-09-25 13:07:00,
2013-09-25 09:12:00,58.2,47.7,29.93,North,360,2.0,6.0,68,0.00,,,0.00,Wunderground v.1.15,2013-09-25 13:12:00,
2013-09-25 09:17:00,58.4,47.5,29.94,North,9,9.0,12.0,67,0.00,,,0.00,Wunderground v.1.15,2013-09-25 13:17:00,
2013-09-25 09:22:00,58.3,47.4,29.93,NNW,337,5.0,8.0,67,0.00,,,0.00,Wunderground v.1.15,2013-09-25 13:22:00,
2013-09-25 09:27:00,59.0,48.1,29.94,NW,319,7.0,10.0,67,0.00,,,0.00,Wunderground v.1.15,2013-09-25 13:27:00,
2013-09-25 09:32:00,59.0,47.2,29.94,NNE,32,4.0,11.0,65,0.00,,,0.00,Wunderground v.1.15,2013-09-25 13:32:00,
2013-09-25 09:37:00,59.6,48.2,29.94,NNW,337,5.0,11.0,66,0.00,,,0.00,Wunderground v.1.15,2013-09-25 13:37:00,
2013-09-25 09:42:00,60.0,48.2,29.94,NNE,18,4.0,8.0,65,0.00,,,0.00,Wunderground v.1.15,2013-09-25 13:42:00,
2013-09-25 09:47:00,59.5,47.7,29.94,NNE,17,4.0,11.0,65,0.00,,,0.00,Wunderground v.1.15,2013-09-25 13:47:00,
2013-09-25 09:52:00,59.5,48.1,29.94,ENE,63,6.0,8.0,66,0.00,,,0.00,Wunderground v.1.15,2013-09-25 13:52:00,
2013-09-25 09:57:00,59.5,48.1,29.94,NW,313,4.0,14.0,66,0.00,,,0.00,Wunderground v.1.15,2013-09-25 13:57:00,
2013-09-25 10:02:00,59.9,47.7,29.94,NNW,327,6.0,14.0,64,0.00,,,0.00,Wunderground v.1.15,2013-09-25 14:02:00,
2013-09-25 10:07:00,60.0,47.4,29.95,NNE,18,6.0,14.0,63,0.00,,,0.00,Wunderground v.1.15,2013-09-25 14:07:00,
2013-09-25 10:12:00,59.8,47.6,29.94,North,360,6.0,9.0,64,0.00,,,0.00,Wunderground v.1.15,2013-09-25 14:12:00,
2013-09-25 10:17:00,60.1,48.3,29.94,ENE,77,4.0,9.0,65,0.00,,,0.00,Wunderground v.1.15,2013-09-25 14:17:00,
2013-09-25 10:22:00,60.3,48.1,29.95,NNE,31,5.0,9.0,64,0.00,,,0.00,Wunderground v.1.15,2013-09-25 14:22:00,
2013-09-25 10:27:00,60.4,47.7,29.94,NNW,346,3.0,9.0,63,0.00,,,0.00,Wunderground v.1.15,2013-09-25 14:27:00,
2013-09-25 10:32:00,61.0,48.3,29.94,North,355,7.0,10.0,63,0.00,,,0.00,Wunderground v.1.15,2013-09-25 14:32:00,
2013-09-25 10:37:00,61.3,48.2,29.94,NW,315,2.0,10.0,62,0.00,,,0.00,Wunderground v.1.15,2013-09-25 14:37:00,
2013-09-25 10:42:00,62.0,49.3,29.94,North,5,5.0,10.0,63,0.00,,,0.00,Wunderground v.1.15,2013-09-25 14:42:00,
2013-09-25 10:47:00,62.0,48.0,29.94,NNE,21,4.0,10.0,60,0.00,,,0.00,Wunderground v.1.15,2013-09-25 14:47:00,
2013-09-25 10:52:00,61.7,48.5,29.94,NW,315,4.0,6.0,62,0.00,,,0.00,Wunderground v.1.15,2013-09-25 14:52:00,
2013-09-25 10:57:00,61.9,48.3,29.94,West,273,0.0,6.0,61,0.00,,,0.00,Wunderground v.1.15,2013-09-25 14:57:00,
2013-09-25 11:02:00,62.1,48.5,29.94,ENE,65,1.0,6.0,61,0.00,,,0.00,Wunderground v.1.15,2013-09-25 15:02:00,
2013-09-25 11:07:00,62.3,47.8,29.94,NNE,19,3.0,9.0,59,0.00,,,0.00,Wunderground v.1.15,2013-09-25 15:07:00,
2013-09-25 11:12:00,61.6,47.6,29.94,NW,315,2.0,6.0,60,0.00,,,0.00,Wunderground v.1.15,2013-09-25 15:12:00,
2013-09-25 11:17:00,62.2,48.1,29.94,NW,315,4.0,6.0,60,0.00,,,0.00,Wunderground v.1.15,2013-09-25 15:17:00,
2013-09-25 11:22:00,63.0,48.9,29.94,ENE,59,3.0,7.0,60,0.00,,,0.00,Wunderground v.1.15,2013-09-25 15:22:00,
2013-09-25 11:27:00,62.9,48.3,29.94,ENE,69,0.0,7.0,59,0.00,,,0.00,Wunderground v.1.15,2013-09-25 15:27:00,
2013-09-25 11:32:00,63.4,48.8,29.94,SE,138,0.0,4.0,59,0.00,,,0.00,Wunderground v.1.15,2013-09-25 15:32:00,
2013-09-25 11:37:00,63.8,48.7,29.93,NW,315,3.0,13.0,58,0.00,,,0.00,Wunderground v.1.15,2013-09-25 15:37:00,
2013-09-25 11:42:00,64.0,48.9,29.93,NNW,331,4.0,9.0,58,0.00,,,0.00,Wunderground v.1.15,2013-09-25 15:42:00,
2013-09-25 11:47:00,63.1,48.5,29.93,NNE,32,3.0,9.0,59,0.00,,,0.00,Wunderground v.1.15,2013-09-25 15:47:00,
2013-09-25 11:52:00,62.5,48.4,29.93,WNW,291,0.0,5.0,60,0.00,,,0.00,Wunderground v.1.15,2013-09-25 15:52:00,
2013-09-25 11:57:00,63.0,49.3,29.93,NNE,20,7.0,8.0,61,0.00,,,0.00,Wunderground v.1.15,2013-09-25 15:57:00,
2013-09-25 12:02:00,63.0,48.4,29.93,North,350,1.0,6.0,59,0.00,,,0.00,Wunderground v.1.15,2013-09-25 16:02:00,
2013-09-25 12:07:00,63.3,48.7,29.93,NE,55,3.0,6.0,59,0.00,,,0.00,Wunderground v.1.15,2013-09-25 16:07:00,
2013-09-25 12:12:00,63.2,49.1,29.93,ENE,65,4.0,4.0,60,0.00,,,0.00,Wunderground v.1.15,2013-09-25 16:12:00,
2013-09-25 12:17:00,63.4,49.3,29.93,NW,307,0.0,5.0,60,0.00,,,0.00,Wunderground v.1.15,2013-09-25 16:17:00,
2013-09-25 12:22:00,64.2,49.1,29.92,NNW,334,4.0,9.0,58,0.00,,,0.00,Wunderground v.1.15,2013-09-25 16:22:00,
2013-09-25 12:27:00,64.4,49.3,29.92,WNW,295,0.0,9.0,58,0.00,,,0.00,Wunderground v.1.15,2013-09-25 16:27:00,
2013-09-25 12:32:00,65.2,49.6,29.92,NW,317,0.0,5.0,57,0.00,,,0.00,Wunderground v.1.15,2013-09-25 16:32:00,
2013-09-25 12:37:00,65.5,49.9,29.92,WNW,292,2.0,5.0,57,0.00,,,0.00,Wunderground v.1.15,2013-09-25 16:37:00,
2013-09-25 12:42:00,65.0,49.4,29.92,North,355,6.0,9.0,57,0.00,,,0.00,Wunderground v.1.15,2013-09-25 16:42:00,
2013-09-25 12:47:00,64.6,49.9,29.92,North,355,3.0,9.0,59,0.00,,,0.00,Wunderground v.1.15,2013-09-25 16:47:00,
2013-09-25 12:52:00,65.2,50.0,29.92,NW,323,2.0,5.0,58,0.00,,,0.00,Wunderground v.1.15,2013-09-25 16:52:00,
2013-09-25 12:57:00,65.5,50.3,29.92,NW,317,0.0,9.0,58,0.00,,,0.00,Wunderground v.1.15,2013-09-25 16:57:00,
2013-09-25 13:02:00,66.0,49.8,29.92,NNW,333,5.0,10.0,56,0.00,,,0.00,Wunderground v.1.15,2013-09-25 17:02:00,
2013-09-25 13:07:00,65.9,50.2,29.92,NW,307,6.0,10.0,57,0.00,,,0.00,Wunderground v.1.15,2013-09-25 17:07:00,
2013-09-25 13:12:00,66.1,50.4,29.92,WNW,300,1.0,9.0,57,0.00,,,0.00,Wunderground v.1.15,2013-09-25 17:12:00,
2013-09-25 13:17:00,66.4,50.2,29.91,WNW,302,4.0,9.0,56,0.00,,,0.00,Wunderground v.1.15,2013-09-25 17:17:00,
2013-09-25 13:22:00,66.9,50.2,29.91,WSW,253,5.0,9.0,55,0.00,,,0.00,Wunderground v.1.15,2013-09-25 17:22:00,
2013-09-25 13:27:00,66.7,50.5,29.91,WSW,245,0.0,9.0,56,0.00,,,0.00,Wunderground v.1.15,2013-09-25 17:27:00,
2013-09-25 13:32:00,67.0,50.8,29.91,NW,315,3.0,7.0,56,0.00,,,0.00,Wunderground v.1.15,2013-09-25 17:32:00,
2013-09-25 13:37:00,67.7,51.9,29.91,West,276,1.0,7.0,57,0.00,,,0.00,Wunderground v.1.15,2013-09-25 17:37:00,
2013-09-25 13:42:00,67.9,50.6,29.90,NNE,24,0.0,6.0,54,0.00,,,0.00,Wunderground v.1.15,2013-09-25 17:42:00,
2013-09-25 13:47:00,67.3,50.6,29.90,NNW,333,4.0,8.0,55,0.00,,,0.00,Wunderground v.1.15,2013-09-25 17:47:00,
2013-09-25 13:52:00,67.4,51.2,29.90,WSW,258,4.0,7.0,56,0.00,,,0.00,Wunderground v.1.15,2013-09-25 17:52:00,
2013-09-25 13:57:00,68.1,52.3,29.90,WSW,248,0.0,7.0,57,0.00,,,0.00,Wunderground v.1.15,2013-09-25 17:57:00,
2013-09-25 14:02:00,68.9,52.1,29.90,WSW,240,1.0,7.0,55,0.00,,,0.00,Wunderground v.1.15,2013-09-25 18:02:00,
2013-09-25 14:07:00,69.9,52.5,29.90,WNW,288,3.0,8.0,54,0.00,,,0.00,Wunderground v.1.15,2013-09-25 18:07:00,
2013-09-25 14:12:00,69.8,50.9,29.90,NNW,336,2.0,8.0,51,0.00,,,0.00,Wunderground v.1.15,2013-09-25 18:12:00,
2013-09-25 14:17:00,68.8,51.5,29.90,NNE,26,6.0,8.0,54,0.00,,,0.00,Wunderground v.1.15,2013-09-25 18:17:00,
2013-09-25 14:22:00,68.4,51.6,29.90,NNE,19,5.0,6.0,55,0.00,,,0.00,Wunderground v.1.15,2013-09-25 18:22:00,
2013-09-25 14:27:00,67.7,50.5,29.90,North,5,2.0,7.0,54,0.00,,,0.00,Wunderground v.1.15,2013-09-25 18:27:00,
2013-09-25 14:32:00,67.5,51.2,29.90,NNE,17,5.0,9.0,56,0.00,,,0.00,Wunderground v.1.15,2013-09-25 18:32:00,
2013-09-25 14:37:00,67.7,51.4,29.90,NNW,345,5.0,9.0,56,0.00,,,0.00,Wunderground v.1.15,2013-09-25 18:37:00,
2013-09-25 14:42:00,67.7,51.4,29.90,NE,40,7.0,10.0,56,0.00,,,0.00,Wunderground v.1.15,2013-09-25 18:42:00,
2013-09-25 14:47:00,67.5,51.2,29.89,NNW,341,4.0,10.0,56,0.00,,,0.00,Wunderground v.1.15,2013-09-25 18:47:00,
2013-09-25 14:52:00,67.7,50.9,29.89,NNE,31,6.0,8.0,55,0.00,,,0.00,Wunderground v.1.15,2013-09-25 18:52:00,
2013-09-25 14:57:00,67.5,51.7,29.90,NNW,337,2.0,9.0,57,0.00,,,0.00,Wunderground v.1.15,2013-09-25 18:57:00,
2013-09-25 15:02:00,67.6,51.3,29.89,NNW,340,4.0,7.0,56,0.00,,,0.00,Wunderground v.1.15,2013-09-25 19:02:00,
2013-09-25 15:07:00,67.7,51.4,29.90,NNW,330,6.0,7.0,56,0.00,,,0.00,Wunderground v.1.15,2013-09-25 19:07:00,
2013-09-25 15:12:00,67.6,51.3,29.89,NNW,327,1.0,6.0,56,0.00,,,0.00,Wunderground v.1.15,2013-09-25 19:12:00,
2013-09-25 15:17:00,67.3,51.1,29.90,NNW,342,6.0,9.0,56,0.00,,,0.00,Wunderground v.1.15,2013-09-25 19:17:00,
2013-09-25 15:22:00,67.0,50.8,29.90,NE,40,5.0,7.0,56,0.00,,,0.00,Wunderground v.1.15,2013-09-25 19:22:00,
2013-09-25 15:27:00,66.7,51.0,29.89,NNE,13,7.0,10.0,57,0.00,,,0.00,Wunderground v.1.15,2013-09-25 19:27:00,
2013-09-25 15:32:00,66.4,50.7,29.89,NNE,22,4.0,12.0,57,0.00,,,0.00,Wunderground v.1.15,2013-09-25 19:32:00,
2013-09-25 15:37:00,66.4,50.7,29.89,North,351,4.0,12.0,57,0.00,,,0.00,Wunderground v.1.15,2013-09-25 19:37:00,
2013-09-25 15:42:00,66.4,51.2,29.90,NNW,339,4.0,6.0,58,0.00,,,0.00,Wunderground v.1.15,2013-09-25 19:42:00,
2013-09-25 15:47:00,66.3,50.6,29.89,NNE,19,4.0,10.0,57,0.00,,,0.00,Wunderground v.1.15,2013-09-25 19:47:00,
2013-09-25 15:52:00,66.4,51.2,29.90,North,10,3.0,6.0,58,0.00,,,0.00,Wunderground v.1.15,2013-09-25 19:52:00,
2013-09-25 15:57:00,66.6,50.9,29.90,North,9,5.0,7.0,57,0.00,,,0.00,Wunderground v.1.15,2013-09-25 19:57:00,
2013-09-25 16:02:00,66.8,51.1,29.90,NNE,22,0.0,4.0,57,0.00,,,0.00,Wunderground v.1.15,2013-09-25 20:02:00,
2013-09-25 16:07:00,66.8,51.1,29.90,North,10,6.0,10.0,57,0.00,,,0.00,Wunderground v.1.15,2013-09-25 20:07:00,
2013-09-25 16:12:00,66.6,50.4,29.90,NNE,19,3.0,8.0,56,0.00,,,0.00,Wunderground v.1.15,2013-09-25 20:12:00,
2013-09-25 16:17:00,66.5,50.8,29.90,NNW,337,3.0,8.0,57,0.00,,,0.00,Wunderground v.1.15,2013-09-25 20:17:00,
2013-09-25 16:22:00,66.4,50.7,29.90,NNE,26,3.0,7.0,57,0.00,,,0.00,Wunderground v.1.15,2013-09-25 20:22:00,
2013-09-25 16:27:00,66.3,50.6,29.90,NNW,345,3.0,9.0,57,0.00,,,0.00,Wunderground v.1.15,2013-09-25 20:27:00,
2013-09-25 16:32:00,66.2,51.4,29.90,NNW,330,3.0,6.0,59,0.00,,,0.00,Wunderground v.1.15,2013-09-25 20:32:00,
2013-09-25 16:37:00,66.4,50.7,29.90,NNE,14,2.0,8.0,57,0.00,,,0.00,Wunderground v.1.15,2013-09-25 20:37:00,
2013-09-25 16:42:00,66.2,51.0,29.90,NNE,31,6.0,13.0,58,0.00,,,0.00,Wunderground v.1.15,2013-09-25 20:42:00,
2013-09-25 16:47:00,66.2,51.0,29.91,North,349,5.0,13.0,58,0.00,,,0.00,Wunderground v.1.15,2013-09-25 20:47:00,
2013-09-25 16:52:00,66.1,50.9,29.91,NNW,342,4.0,9.0,58,0.00,,,0.00,Wunderground v.1.15,2013-09-25 20:52:00,
2013-09-25 16:57:00,66.0,50.8,29.91,North,11,2.0,11.0,58,0.00,,,0.00,Wunderground v.1.15,2013-09-25 20:57:00,
2013-09-25 17:02:00,65.9,51.2,29.91,NNE,22,3.0,5.0,59,0.00,,,0.00,Wunderground v.1.15,2013-09-25 21:02:00,
2013-09-25 17:07:00,65.8,51.1,29.91,North,9,3.0,9.0,59,0.00,,,0.00,Wunderground v.1.15,2013-09-25 21:07:00,
2013-09-25 17:12:00,65.9,51.6,29.91,North,9,1.0,4.0,60,0.00,,,0.00,Wunderground v.1.15,2013-09-25 21:12:00,
2013-09-25 17:17:00,65.9,52.1,29.91,North,9,0.0,4.0,61,0.00,,,0.00,Wunderground v.1.15,2013-09-25 21:17:00,
2013-09-25 17:22:00,65.8,52.0,29.91,North,9,3.0,5.0,61,0.00,,,0.00,Wunderground v.1.15,2013-09-25 21:22:00,
2013-09-25 17:27:00,65.6,51.8,29.91,NNE,23,2.0,6.0,61,0.00,,,0.00,Wunderground v.1.15,2013-09-25 21:27:00,
2013-09-25 17:33:00,65.3,51.5,29.91,ENE,60,4.0,6.0,61,0.00,,,0.00,Wunderground v.1.15,2013-09-25 21:33:00,
2013-09-25 17:37:00,65.0,51.2,29.92,NE,48,1.0,10.0,61,0.00,,,0.00,Wunderground v.1.15,2013-09-25 21:37:00,
2013-09-25 17:43:00,64.7,51.8,29.92,ENE,59,7.0,7.0,63,0.00,,,0.00,Wunderground v.1.15,2013-09-25 21:43:00,
2013-09-25 17:47:00,64.3,51.4,29.92,ESE,105,5.0,10.0,63,0.00,,,0.00,Wunderground v.1.15,2013-09-25 21:47:00,
2013-09-25 17:53:00,63.1,50.3,29.92,SE,146,5.0,9.0,63,0.00,,,0.00,Wunderground v.1.15,2013-09-25 21:53:00,
2013-09-25 17:57:00,62.0,49.7,29.93,ESE,105,4.0,10.0,64,0.00,,,0.00,Wunderground v.1.15,2013-09-25 21:57:00,
2013-09-25 18:02:00,61.3,49.8,29.93,East,88,3.0,5.0,66,0.00,,,0.00,Wunderground v.1.15,2013-09-25 22:02:00,
2013-09-25 18:07:00,60.8,49.8,29.93,ESE,122,1.0,10.0,67,0.00,,,0.00,Wunderground v.1.15,2013-09-25 22:07:00,
2013-09-25 18:13:00,60.4,49.4,29.93,ENE,69,5.0,7.0,67,0.00,,,0.00,Wunderground v.1.15,2013-09-25 22:13:00,
2013-09-25 18:17:00,60.1,49.5,29.94,NE,45,3.0,7.0,68,0.00,,,0.00,Wunderground v.1.15,2013-09-25 22:17:00,
2013-09-25 18:22:00,59.9,49.3,29.94,ESE,119,3.0,5.0,68,0.00,,,0.00,Wunderground v.1.15,2013-09-25 22:22:00,
2013-09-25 18:28:00,59.8,49.6,29.94,SE,128,3.0,5.0,69,0.00,,,0.00,Wunderground v.1.15,2013-09-25 22:28:00,
2013-09-25 18:32:00,59.7,49.5,29.94,SE,128,0.0,2.0,69,0.00,,,0.00,Wunderground v.1.15,2013-09-25 22:32:00,
2013-09-25 18:38:00,59.5,49.7,29.94,South,171,1.0,4.0,70,0.00,,,0.00,Wunderground v.1.15,2013-09-25 22:38:00,
2013-09-25 18:43:00,59.1,49.3,29.94,East,86,0.0,5.0,70,0.00,,,0.00,Wunderground v.1.15,2013-09-25 22:43:00,
2013-09-25 18:48:00,59.0,49.2,29.94,SE,132,3.0,5.0,70,0.00,,,0.00,Wunderground v.1.15,2013-09-25 22:48:00,
2013-09-25 18:53:00,59.0,49.6,29.94,East,101,3.0,4.0,71,0.00,,,0.00,Wunderground v.1.15,2013-09-25 22:53:00,
2013-09-25 18:58:00,58.8,49.4,29.94,East,101,3.0,5.0,71,0.00,,,0.00,Wunderground v.1.15,2013-09-25 22:58:00,
2013-09-25 19:03:00,58.6,49.2,29.95,ESE,107,4.0,5.0,71,0.00,,,0.00,Wunderground v.1.15,2013-09-25 23:03:00,
2013-09-25 19:08:00,58.5,49.1,29.95,ESE,106,3.0,5.0,71,0.00,,,0.00,Wunderground v.1.15,2013-09-25 23:08:00,
2013-09-25 19:13:00,58.4,49.4,29.95,SE,130,0.0,5.0,72,0.00,,,0.00,Wunderground v.1.15,2013-09-25 23:13:00,
2013-09-25 19:18:00,58.3,49.3,29.95,SE,129,0.0,5.0,72,0.00,,,0.00,Wunderground v.1.15,2013-09-25 23:18:00,
2013-09-25 19:23:00,58.2,49.2,29.96,East,99,4.0,4.0,72,0.00,,,0.00,Wunderground v.1.15,2013-09-25 23:23:00,
2013-09-25 19:28:00,58.1,49.1,29.96,East,99,2.0,4.0,72,0.00,,,0.00,Wunderground v.1.15,2013-09-25 23:28:00,
2013-09-25 19:33:00,58.0,49.4,29.96,East,100,4.0,4.0,73,0.00,,,0.00,Wunderground v.1.15,2013-09-25 23:33:00,
2013-09-25 19:38:00,57.9,49.7,29.96,East,99,2.0,4.0,74,0.00,,,0.00,Wunderground v.1.15,2013-09-25 23:38:00,
2013-09-25 19:43:00,57.8,49.6,29.96,East,100,2.0,3.0,74,0.00,,,0.00,Wunderground v.1.15,2013-09-25 23:43:00,
2013-09-25 19:48:00,57.7,49.5,29.97,East,100,0.0,3.0,74,0.00,,,0.00,Wunderground v.1.15,2013-09-25 23:48:00,
2013-09-25 19:53:00,57.6,49.4,29.97,East,99,0.0,4.0,74,0.00,,,0.00,Wunderground v.1.15,2013-09-25 23:53:00,
2013-09-25 19:58:00,57.4,49.2,29.97,East,99,0.0,4.0,74,0.00,,,0.00,Wunderground v.1.15,2013-09-25 23:58:00,
2013-09-25 20:03:00,57.2,49.0,29.97,East,99,0.0,1.0,74,0.00,,,0.00,Wunderground v.1.15,2013-09-26 00:03:00,
2013-09-25 20:08:00,57.1,49.2,29.97,East,99,0.0,2.0,75,0.00,,,0.00,Wunderground v.1.15,2013-09-26 00:08:00,
2013-09-25 20:13:00,56.9,49.1,29.97,East,99,0.0,1.0,75,0.00,,,0.00,Wunderground v.1.15,2013-09-26 00:13:00,
2013-09-25 20:18:00,56.7,49.2,29.97,East,100,0.0,1.0,76,0.00,,,0.00,Wunderground v.1.15,2013-09-26 00:18:00,
2013-09-25 20:23:00,56.5,49.0,29.97,East,100,0.0,0.0,76,0.00,,,0.00,Wunderground v.1.15,2013-09-26 00:23:00,
2013-09-25 20:28:00,56.2,48.7,29.97,East,99,0.0,0.0,76,0.00,,,0.00,Wunderground v.1.15,2013-09-26 00:28:00,
2013-09-25 20:33:00,55.9,48.8,29.97,East,99,0.0,0.0,77,0.00,,,0.00,Wunderground v.1.15,2013-09-26 00:33:00,
2013-09-25 20:38:00,55.5,48.8,29.98,East,100,0.0,0.0,78,0.00,,,0.00,Wunderground v.1.15,2013-09-26 00:38:00,
2013-09-25 20:43:00,55.1,48.7,29.98,East,100,0.0,0.0,79,0.00,,,0.00,Wunderground v.1.15,2013-09-26 00:43:00,
2013-09-25 20:48:00,54.8,48.4,29.98,East,99,0.0,0.0,79,0.00,,,0.00,Wunderground v.1.15,2013-09-26 00:48:00,
2013-09-25 20:53:00,54.4,48.0,29.98,East,100,0.0,0.0,79,0.00,,,0.00,Wunderground v.1.15,2013-09-26 00:53:00,
2013-09-25 20:58:00,54.0,48.0,29.98,East,100,0.0,0.0,80,0.00,,,0.00,Wunderground v.1.15,2013-09-26 00:58:00,
2013-09-25 21:03:00,53.7,48.0,29.98,East,99,0.0,0.0,81,0.00,,,0.00,Wunderground v.1.15,2013-09-26 01:03:00,
2013-09-25 21:08:00,53.6,47.9,29.98,East,100,0.0,0.0,81,0.00,,,0.00,Wunderground v.1.15,2013-09-26 01:08:00,
2013-09-25 21:13:00,53.5,48.1,29.98,East,100,0.0,0.0,82,0.00,,,0.00,Wunderground v.1.15,2013-09-26 01:13:00,
2013-09-25 21:18:00,53.6,48.6,29.98,East,100,0.0,0.0,83,0.00,,,0.00,Wunderground v.1.15,2013-09-26 01:18:00,
2013-09-25 21:23:00,53.7,48.7,29.99,East,99,0.0,0.0,83,0.00,,,0.00,Wunderground v.1.15,2013-09-26 01:23:00,
2013-09-25 21:28:00,53.7,48.7,29.99,East,100,0.0,0.0,83,0.00,,,0.00,Wunderground v.1.15,2013-09-26 01:28:00,
2013-09-25 21:33:00,53.8,48.8,29.99,East,100,0.0,0.0,83,0.00,,,0.00,Wunderground v.1.15,2013-09-26 01:33:00,
2013-09-25 21:38:00,53.9,48.9,29.99,East,99,0.0,0.0,83,0.00,,,0.00,Wunderground v.1.15,2013-09-26 01:38:00,
2013-09-25 21:43:00,54.0,49.0,29.99,East,100,0.0,0.0,83,0.00,,,0.00,Wunderground v.1.15,2013-09-26 01:43:00,
2013-09-25 21:48:00,54.1,49.1,29.99,East,100,0.0,0.0,83,0.00,,,0.00,Wunderground v.1.15,2013-09-26 01:48:00,
2013-09-25 21:53:00,54.3,49.2,29.99,East,100,0.0,0.0,83,0.00,,,0.00,Wunderground v.1.15,2013-09-26 01:53:00,
2013-09-25 21:58:00,54.4,49.3,29.99,East,99,0.0,0.0,83,0.00,,,0.00,Wunderground v.1.15,2013-09-26 01:58:00,
2013-09-25 22:03:00,54.4,49.3,30.00,East,100,0.0,0.0,83,0.00,,,0.00,Wunderground v.1.15,2013-09-26 02:03:00,
2013-09-25 22:08:00,54.5,49.4,30.00,East,100,0.0,0.0,83,0.00,,,0.00,Wunderground v.1.15,2013-09-26 02:08:00,
2013-09-25 22:13:00,54.5,49.4,30.00,East,99,0.0,0.0,83,0.00,,,0.00,Wunderground v.1.15,2013-09-26 02:13:00,
2013-09-25 22:18:00,54.6,49.5,30.00,East,100,0.0,0.0,83,0.00,,,0.00,Wunderground v.1.15,2013-09-26 02:18:00,
2013-09-25 22:23:00,54.6,49.5,30.00,East,99,0.0,0.0,83,0.00,,,0.00,Wunderground v.1.15,2013-09-26 02:23:00,
2013-09-25 22:28:00,54.8,49.7,30.00,East,99,0.0,0.0,83,0.00,,,0.00,Wunderground v.1.15,2013-09-26 02:28:00,
2013-09-25 22:33:00,54.9,49.8,30.00,East,100,0.0,0.0,83,0.00,,,0.00,Wunderground v.1.15,2013-09-26 02:33:00,
2013-09-25 22:38:00,55.0,49.9,30.00,East,100,0.0,0.0,83,0.00,,,0.00,Wunderground v.1.15,2013-09-26 02:38:00,
2013-09-25 22:43:00,55.0,49.9,30.00,East,99,0.0,0.0,83,0.00,,,0.00,Wunderground v.1.15,2013-09-26 02:43:00,
2013-09-25 22:48:00,55.1,50.0,30.00,East,100,0.0,0.0,83,0.00,,,0.00,Wunderground v.1.15,2013-09-26 02:48:00,
2013-09-25 22:53:00,55.1,49.7,30.00,East,100,0.0,0.0,82,0.00,,,0.00,Wunderground v.1.15,2013-09-26 02:53:00,
2013-09-25 22:58:00,55.1,49.7,30.00,East,100,0.0,0.0,82,0.00,,,0.00,Wunderground v.1.15,2013-09-26 02:58:00,
2013-09-25 23:03:00,55.2,49.8,30.01,East,100,0.0,0.0,82,0.00,,,0.00,Wunderground v.1.15,2013-09-26 03:03:00,
2013-09-25 23:08:00,55.3,49.9,30.01,East,99,0.0,0.0,82,0.00,,,0.00,Wunderground v.1.15,2013-09-26 03:08:00,
2013-09-25 23:13:00,55.3,49.9,30.01,East,100,0.0,0.0,82,0.00,,,0.00,Wunderground v.1.15,2013-09-26 03:13:00,
2013-09-25 23:18:00,55.3,49.9,30.01,East,100,0.0,0.0,82,0.00,,,0.00,Wunderground v.1.15,2013-09-26 03:18:00,
2013-09-25 23:23:00,55.3,49.9,30.01,East,100,0.0,0.0,82,0.00,,,0.00,Wunderground v.1.15,2013-09-26 03:23:00,
2013-09-25 23:28:00,55.3,49.9,30.01,East,99,0.0,1.0,82,0.00,,,0.00,Wunderground v.1.15,2013-09-26 03:28:00,
2013-09-25 23:33:00,55.3,49.9,30.01,East,100,0.0,0.0,82,0.00,,,0.00,Wunderground v.1.15,2013-09-26 03:33:00,
2013-09-25 23:38:00,55.4,50.0,30.01,East,100,0.0,1.0,82,0.00,,,0.00,Wunderground v.1.15,2013-09-26 03:38:00,
2013-09-25 23:43:00,55.4,51.0,30.01,East,99,0.0,0.0,85,0.00,,,0.00,Wunderground v.1.15,2013-09-26 03:43:00,
2013-09-25 23:48:00,55.4,51.0,30.01,East,99,0.0,0.0,85,0.00,,,0.00,Wunderground v.1.15,2013-09-26 03:48:00,
2013-09-25 23:53:00,55.4,50.6,30.01,East,100,0.0,0.0,84,0.00,,,0.00,Wunderground v.1.15,2013-09-26 03:53:00,
2013-09-25 23:58:00,55.4,50.0,30.01,East,100,0.0,0.0,82,0.00,,,0.00,Wunderground v.1.15,2013-09-26 03:58:00,